DLH8PT EGCC-EKCH

Flight info

Callsign DLH8PT
Flight time 1h 23m
Altitude 37000
Route SONEX L975 DESIG L603 LAMIX UT29 LIBSO UL975 ERDOW DCT GIGUL DCT LARGA DCT SOPTO DCT DOREV DCT TESPI
Aircraft A320/M-SDE3FGHIRWY/LB1

Departure

Time 2026-05-04 16:51
Airport Manchester Airport (EGCC)

Arrival

Time 2026-05-04 18:14
Airport Copenhagen Kastrup Airport (EKCH)
Time Latitude Longitude Altitude Speed Heading
2026-05-04 16:35 53.35929 -2.27520 255 ft 0 kts 96°
2026-05-04 16:42 53.35930 -2.27546 255 ft 2 kts 96°
2026-05-04 16:43 53.35937 -2.27601 255 ft 2 kts 154°
2026-05-04 16:43 53.35942 -2.27605 255 ft 0 kts 173°
2026-05-04 16:46 53.35808 -2.27646 254 ft 19 kts 185°
2026-05-04 16:47 53.35631 -2.27536 246 ft 6 kts 141°
2026-05-04 16:47 53.35623 -2.27525 246 ft 0 kts 140°
2026-05-04 16:48 53.35565 -2.27446 245 ft 14 kts 143°
2026-05-04 16:48 53.35502 -2.27362 248 ft 12 kts 141°
2026-05-04 16:49 53.35249 -2.27289 239 ft 22 kts 232°
2026-05-04 16:49 53.35062 -2.27488 229 ft 23 kts 161°
2026-05-04 16:50 53.34842 -2.27677 223 ft 23 kts 232°
2026-05-04 16:50 53.34091 -2.29226 230 ft 143 kts 232°
2026-05-04 16:51 53.32694 -2.31986 1427 ft 156 kts 234°
2026-05-04 16:51 53.32008 -2.33499 1952 ft 173 kts 239°
2026-05-04 16:51 53.31385 -2.37785 2661 ft 212 kts 277°
2026-05-04 16:52 53.32876 -2.42442 3567 ft 253 kts 322°
2026-05-04 16:52 53.34472 -2.43722 4395 ft 260 kts 347°
2026-05-04 16:53 53.38125 -2.43720 6369 ft 267 kts
2026-05-04 16:53 53.43667 -2.45496 8879 ft 280 kts 353°
2026-05-04 16:54 53.45619 -2.45176 9685 ft 288 kts 18°
2026-05-04 16:55 53.48455 -2.33522 12715 ft 309 kts 97°
2026-05-04 16:55 53.49117 -2.26184 13558 ft 341 kts 74°
2026-05-04 16:56 53.50177 -2.17977 14177 ft 372 kts 82°
2026-05-04 16:56 53.51129 -2.04909 16097 ft 382 kts 82°
2026-05-04 16:57 53.51527 -2.00476 16753 ft 385 kts 81°
2026-05-04 16:57 53.53144 -1.91858 17971 ft 391 kts 67°
2026-05-04 16:58 53.56354 -1.79085 19634 ft 398 kts 67°
2026-05-04 16:58 53.57439 -1.74780 20186 ft 401 kts 67°
2026-05-04 16:59 53.59608 -1.66107 21303 ft 403 kts 67°
2026-05-04 17:00 53.63976 -1.48532 23314 ft 412 kts 68°
2026-05-04 17:00 53.67295 -1.35067 24623 ft 417 kts 68°
2026-05-04 17:01 53.69531 -1.26000 25446 ft 419 kts 68°
2026-05-04 17:01 53.71749 -1.16934 26245 ft 422 kts 68°
2026-05-04 17:02 53.73988 -1.07743 27008 ft 425 kts 68°
2026-05-04 17:02 53.76242 -0.98434 27674 ft 430 kts 68°
2026-05-04 17:03 53.77375 -0.93741 28023 ft 432 kts 68°
2026-05-04 17:03 53.78511 -0.89026 28370 ft 434 kts 68°
2026-05-04 17:03 53.80792 -0.79532 29044 ft 437 kts 68°
2026-05-04 17:04 53.83076 -0.69973 29686 ft 439 kts 68°
2026-05-04 17:04 53.85366 -0.60346 30389 ft 439 kts 68°
2026-05-04 17:05 53.87639 -0.50774 31108 ft 437 kts 68°
2026-05-04 17:05 53.89898 -0.41218 31806 ft 436 kts 68°
2026-05-04 17:06 53.92145 -0.31683 32496 ft 435 kts 68°
2026-05-04 17:06 53.93260 -0.26921 32839 ft 434 kts 68°
2026-05-04 17:07 53.95474 -0.17405 33518 ft 433 kts 68°
2026-05-04 17:07 53.96204 -0.14257 33757 ft 432 kts 68°
2026-05-04 17:07 53.97677 -0.07910 34188 ft 432 kts 68°
2026-05-04 17:07 53.98776 -0.03163 34448 ft 432 kts 68°
2026-05-04 17:08 53.99877 0.01596 34659 ft 434 kts 68°
2026-05-04 17:08 54.01900 0.10347 34969 ft 438 kts 68°
2026-05-04 17:08 54.03016 0.15176 35186 ft 439 kts 68°
2026-05-04 17:09 54.04128 0.20015 35423 ft 439 kts 69°
2026-05-04 17:09 54.05237 0.24868 35640 ft 440 kts 69°
2026-05-04 17:09 54.06344 0.29728 35868 ft 440 kts 69°
2026-05-04 17:10 54.08554 0.39496 36254 ft 442 kts 69°
2026-05-04 17:10 54.11884 0.54237 36790 ft 446 kts 69°
2026-05-04 17:11 54.13002 0.59181 36953 ft 447 kts 69°
2026-05-04 17:11 54.14105 0.64077 37044 ft 449 kts 69°
2026-05-04 17:12 54.17454 0.79058 37055 ft 451 kts 69°
2026-05-04 17:13 54.22988 1.04133 37054 ft 451 kts 69°
2026-05-04 17:14 54.27392 1.24275 37047 ft 453 kts 69°
2026-05-04 17:15 54.30674 1.39384 37047 ft 454 kts 69°
2026-05-04 17:16 54.35049 1.59677 37059 ft 454 kts 70°
2026-05-04 17:17 54.39381 1.80063 37063 ft 455 kts 70°
2026-05-04 17:18 54.43687 2.00514 37062 ft 455 kts 70°
2026-05-04 17:19 54.47958 2.20954 37060 ft 456 kts 70°
2026-05-04 17:20 54.52207 2.41553 37051 ft 457 kts 70°
2026-05-04 17:20 54.55386 2.57058 37054 ft 458 kts 70°
2026-05-04 17:21 54.59586 2.77799 37052 ft 459 kts 71°
2026-05-04 17:22 54.61679 2.88196 37051 ft 459 kts 71°
2026-05-04 17:23 54.65848 3.09039 37059 ft 459 kts 71°
2026-05-04 17:24 54.68945 3.24723 37063 ft 459 kts 71°
2026-05-04 17:25 54.73047 3.45631 37047 ft 461 kts 71°
2026-05-04 17:26 54.77129 3.66709 37049 ft 462 kts 71°
2026-05-04 17:27 54.82194 3.93176 37046 ft 463 kts 72°
2026-05-04 17:28 54.86062 4.12504 37048 ft 463 kts 63°
2026-05-04 17:29 54.95140 4.41558 37039 ft 463 kts 72°
2026-05-04 17:31 55.00031 4.68378 37034 ft 466 kts 72°
2026-05-04 17:32 55.04889 4.95412 37018 ft 470 kts 72°
2026-05-04 17:33 55.08789 5.17315 37017 ft 474 kts 72°
2026-05-04 17:34 55.12672 5.39374 37030 ft 476 kts 73°
2026-05-04 17:35 55.17469 5.67047 37029 ft 478 kts 73°
2026-05-04 17:36 55.19373 5.78196 37030 ft 478 kts 73°
2026-05-04 17:36 55.21278 5.89375 37030 ft 479 kts 73°
2026-05-04 17:37 55.23178 6.00552 37028 ft 479 kts 73°
2026-05-04 17:37 55.25055 6.11751 37023 ft 479 kts 73°
2026-05-04 17:38 55.26922 6.22970 37023 ft 480 kts 73°
2026-05-04 17:38 55.28784 6.34209 37027 ft 480 kts 73°
2026-05-04 17:39 55.31561 6.51104 37026 ft 481 kts 73°
2026-05-04 17:39 55.33404 6.62389 37031 ft 481 kts 74°
2026-05-04 17:40 55.35235 6.73695 37042 ft 481 kts 74°
2026-05-04 17:40 55.37061 6.85016 37026 ft 482 kts 74°
2026-05-04 17:41 55.38886 6.96389 37025 ft 483 kts 74°
2026-05-04 17:41 55.40679 7.07704 37027 ft 483 kts 74°
2026-05-04 17:42 55.42476 7.19123 37028 ft 484 kts 74°
2026-05-04 17:42 55.44266 7.30544 37025 ft 484 kts 74°
2026-05-04 17:43 55.46048 7.41984 37022 ft 484 kts 74°
2026-05-04 17:43 55.47822 7.53440 37024 ft 485 kts 74°
2026-05-04 17:44 55.49589 7.64926 37027 ft 485 kts 75°
2026-05-04 17:44 55.51340 7.76426 37026 ft 485 kts 75°
2026-05-04 17:45 55.53076 7.87924 37016 ft 485 kts 75°
2026-05-04 17:45 55.54804 7.99452 37011 ft 486 kts 75°
2026-05-04 17:46 55.56516 8.10932 37000 ft 487 kts 75°
2026-05-04 17:46 55.58238 8.22521 37008 ft 487 kts 75°
2026-05-04 17:47 55.59755 8.34199 37025 ft 486 kts 83°
2026-05-04 17:47 55.60582 8.46057 37034 ft 484 kts 83°
2026-05-04 17:48 55.61390 8.57855 37024 ft 482 kts 83°
2026-05-04 17:48 55.62183 8.69555 37022 ft 481 kts 83°
2026-05-04 17:49 55.62971 8.81316 37019 ft 480 kts 83°
2026-05-04 17:49 55.63743 8.93061 37017 ft 480 kts 83°
2026-05-04 17:50 55.64495 9.04811 37012 ft 480 kts 84°
2026-05-04 17:50 55.65237 9.16572 37013 ft 480 kts 84°
2026-05-04 17:51 55.65971 9.28331 37013 ft 480 kts 84°
2026-05-04 17:51 55.66696 9.40116 36841 ft 481 kts 84°
2026-05-04 17:52 55.67054 9.45984 36569 ft 480 kts 84°
2026-05-04 17:52 55.67404 9.51790 36314 ft 479 kts 84°
2026-05-04 17:52 55.67759 9.57731 36073 ft 478 kts 84°
2026-05-04 17:52 55.68106 9.63592 35812 ft 478 kts 84°
2026-05-04 17:53 55.68447 9.69372 35553 ft 478 kts 84°
2026-05-04 17:53 55.68788 9.75239 35306 ft 477 kts 84°
2026-05-04 17:53 55.69127 9.81086 35061 ft 477 kts 84°
2026-05-04 17:53 55.69465 9.86929 34817 ft 476 kts 84°
2026-05-04 17:54 55.69799 9.92764 34571 ft 476 kts 84°
2026-05-04 17:54 55.70126 9.98595 34135 ft 476 kts 84°
2026-05-04 17:54 55.70453 10.04482 32997 ft 483 kts 84°
2026-05-04 17:54 55.70781 10.10436 32005 ft 486 kts 84°
2026-05-04 17:55 55.71110 10.16424 30915 ft 490 kts 84°
2026-05-04 17:55 55.71444 10.22478 29794 ft 495 kts 85°
2026-05-04 17:55 55.71771 10.28483 28651 ft 485 kts 85°
2026-05-04 17:55 55.72081 10.34322 28071 ft 464 kts 85°
2026-05-04 17:56 55.72377 10.39936 27359 ft 454 kts 85°
2026-05-04 17:56 55.72671 10.45510 26683 ft 453 kts 84°
2026-05-04 17:56 55.72977 10.51038 26368 ft 458 kts 84°
2026-05-04 17:56 55.73304 10.56674 26114 ft 459 kts 84°
2026-05-04 17:57 55.73634 10.62312 25862 ft 459 kts 84°
2026-05-04 17:57 55.73962 10.67863 25613 ft 458 kts 84°
2026-05-04 17:57 55.74291 10.73460 25112 ft 454 kts 84°
2026-05-04 17:57 55.74616 10.79064 24414 ft 461 kts 84°
2026-05-04 17:58 55.74939 10.84745 23718 ft 463 kts 84°
2026-05-04 17:58 55.75257 10.90424 22969 ft 461 kts 84°
2026-05-04 17:58 55.75566 10.96082 22335 ft 458 kts 84°
2026-05-04 17:58 55.75867 11.01677 21723 ft 455 kts 84°
2026-05-04 17:59 55.76167 11.07243 21142 ft 451 kts 84°
2026-05-04 17:59 55.76463 11.12780 20562 ft 448 kts 84°
2026-05-04 17:59 55.77037 11.23700 19467 ft 441 kts 84°
2026-05-04 18:00 55.77317 11.29110 18925 ft 438 kts 84°
2026-05-04 18:00 55.77593 11.34489 18363 ft 436 kts 85°
2026-05-04 18:00 55.77868 11.39851 17763 ft 434 kts 84°
2026-05-04 18:00 55.78139 11.45163 17240 ft 429 kts 84°
2026-05-04 18:01 55.78408 11.50445 16980 ft 428 kts 84°
2026-05-04 18:01 55.78673 11.55701 16711 ft 427 kts 85°
2026-05-04 18:01 55.78933 11.60942 16436 ft 425 kts 85°
2026-05-04 18:02 55.79443 11.71276 15307 ft 420 kts 85°
2026-05-04 18:02 55.79695 11.76443 14714 ft 418 kts 85°
2026-05-04 18:02 55.79943 11.81569 14100 ft 416 kts 85°
2026-05-04 18:02 55.80187 11.86660 13678 ft 409 kts 85°
2026-05-04 18:03 55.80424 11.91710 12911 ft 410 kts 85°
2026-05-04 18:03 55.80654 11.96692 12507 ft 401 kts 85°
2026-05-04 18:03 55.80882 12.01653 11834 ft 400 kts 85°
2026-05-04 18:03 55.81107 12.06527 11432 ft 392 kts 85°
2026-05-04 18:04 55.81328 12.11324 10902 ft 387 kts 85°
2026-05-04 18:04 55.81543 12.16071 10346 ft 383 kts 85°
2026-05-04 18:04 55.81950 12.25166 9731 ft 343 kts 85°
2026-05-04 18:05 55.82127 12.29244 9565 ft 320 kts 85°
2026-05-04 18:05 55.82293 12.33112 9071 ft 309 kts 85°
2026-05-04 18:05 55.82455 12.36897 8465 ft 305 kts 85°
2026-05-04 18:05 55.82616 12.40640 7849 ft 301 kts 85°
2026-05-04 18:06 55.82910 12.47699 7130 ft 276 kts 88°
2026-05-04 18:06 55.82753 12.51087 6595 ft 273 kts 99°
2026-05-04 18:06 55.82445 12.54401 6033 ft 270 kts 100°
2026-05-04 18:07 55.82118 12.57679 5465 ft 268 kts 100°
2026-05-04 18:07 55.81787 12.60921 4917 ft 265 kts 100°
2026-05-04 18:07 55.81459 12.64124 4362 ft 261 kts 100°
2026-05-04 18:07 55.81130 12.67235 4042 ft 257 kts 100°
2026-05-04 18:08 55.80789 12.70366 4003 ft 258 kts 100°
2026-05-04 18:08 55.80451 12.73458 4001 ft 245 kts 100°
2026-05-04 18:08 55.80137 12.76345 3816 ft 232 kts 100°
2026-05-04 18:08 55.79803 12.79105 3555 ft 226 kts 108°
2026-05-04 18:09 55.77942 12.83475 3079 ft 222 kts 135°
2026-05-04 18:09 55.75319 12.85680 3009 ft 212 kts 192°
2026-05-04 18:10 55.74010 12.84650 2977 ft 205 kts 223°
2026-05-04 18:10 55.72948 12.83005 2763 ft 200 kts 226°
2026-05-04 18:10 55.71932 12.81389 2532 ft 191 kts 226°
2026-05-04 18:10 55.70966 12.79874 2279 ft 179 kts 225°
2026-05-04 18:11 55.70058 12.78456 2032 ft 168 kts 226°
2026-05-04 18:11 55.69199 12.77115 1824 ft 162 kts 225°
2026-05-04 18:11 55.68360 12.75808 1592 ft 159 kts 225°
2026-05-04 18:11 55.67535 12.74522 1375 ft 157 kts 225°
2026-05-04 18:12 55.66990 12.73674 1223 ft 156 kts 226°
2026-05-04 18:12 55.66178 12.72411 1011 ft 155 kts 225°
2026-05-04 18:12 55.65096 12.70729 731 ft 157 kts 225°
2026-05-04 18:12 55.64547 12.69877 585 ft 155 kts 224°
2026-05-04 18:13 55.63736 12.68612 351 ft 155 kts 225°
2026-05-04 18:13 55.62960 12.67417 161 ft 141 kts 225°
2026-05-04 18:13 55.61740 12.65515 23 ft 64 kts 222°
2026-05-04 18:14 55.61605 12.65129 23 ft 32 kts 275°
2026-05-04 18:14 55.61663 12.64918 24 ft 17 kts 310°
2026-05-04 18:14 55.61752 12.64809 24 ft 16 kts 339°
2026-05-04 18:15 55.61934 12.64864 23 ft 17 kts 26°
2026-05-04 18:15 55.62129 12.65081 24 ft 6 kts 31°
2026-05-04 18:15 55.62135 12.65088 24 ft 0 kts 31°
2026-05-04 18:16 55.62185 12.65145 24 ft 15 kts 34°
2026-05-04 18:17 55.62356 12.64859 24 ft 19 kts 302°
2026-05-04 18:17 55.62467 12.64769 24 ft 20 kts 358°
2026-05-04 18:17 55.62609 12.64841 24 ft 7 kts 89°
2026-05-04 18:18 55.62608 12.64894 24 ft 1 kts 92°